Location: Kitchener
(43.4500°N, 80.5000°W)
Time: 02:58:32
(UTC-05:00)

Envisat - Visible Passes

Search period start: 21 November 2018 00:00
Search period end: 01 December 2018 00:00
Orbit: 764 x 766 km, 98.2° (Epoch: 21 November)

Date Brightness Start Highest point End Pass type
(mag) Time Alt. Az. Time Alt. Az. Time Alt. Az.
21 Nov 3.4 18:32:18 22° ESE 18:34:54 38° ENE 18:39:34 10° N visible
21 Nov 4.8 20:12:31 24° WSW 20:13:59 27° W 20:18:18 10° NW visible
22 Nov 6.3 06:40:12 10° ENE 06:41:48 11° E 06:43:24 10° ESE visible
22 Nov 4.3 17:55:15 11° ESE 17:58:30 19° ENE 18:01:59 10° NNE visible
22 Nov 3.4 19:35:28 40° SSW 19:37:04 59° W 19:42:06 10° NNW visible
23 Nov 2.9 18:58:25 37° SE 19:00:20 64° ENE 19:05:22 10° N visible
23 Nov 5.6 20:38:37 15° WSW 20:39:48 16° W 20:42:52 10° NW visible
24 Nov 3.7 18:21:19 20° ESE 18:23:47 31° ENE 18:28:12 10° N visible
24 Nov 4.5 20:01:32 30° SW 20:02:43 34° W 20:07:20 10° NNW visible
25 Nov 4.5 17:44:34 10° E 17:47:27 15° ENE 17:50:20 10° NNE visible
25 Nov 3.1 19:24:27 48° S 19:25:51 75° WSW 19:30:58 10° NNW visible
26 Nov 3.1 18:47:20 34° SE 18:49:10 51° ENE 18:54:05 10° N visible
26 Nov 5.3 20:27:32 19° WSW 20:28:29 20° W 20:32:11 10° NW visible
27 Nov 5.9 06:53:14 10° NE 06:56:21 16° E 06:59:27 10° SE visible
27 Nov 3.9 18:10:11 17° ESE 18:12:42 25° ENE 18:16:47 10° N visible
27 Nov 4.0 19:46:40 10° S 19:51:28 43° W 19:56:18 10° NNW visible
28 Nov 4.7 17:34:22 10° E 17:36:26 12° ENE 17:38:29 10° NNE visible
28 Nov 2.8 19:09:35 10° SSE 19:14:40 87° ENE 19:19:46 10° NNW visible
28 Nov 6.0 20:53:26 11° W 20:54:22 11° W 20:55:50 10° WNW visible
29 Nov 3.3 18:36:02 28° ESE 18:38:03 41° ENE 18:42:47 10° N visible
29 Nov 5.0 20:13:03 10° SSW 20:17:11 25° W 20:21:21 10° NW visible
30 Nov 6.1 06:42:51 10° ENE 06:45:02 13° E 06:47:12 10° ESE visible
30 Nov 4.2 17:58:48 13° ESE 18:01:37 20° ENE 18:05:18 10° NNE visible
30 Nov 3.6 19:35:17 10° S 19:40:15 54° W 19:45:14 10° NNW visible
